Location: Edinburgh
(55.9500°N, 3.1600°W)
Time: 12:04:59
(UTC+01:00)

AO-91 - Pass Details

Date: 01 June 2024
Orbit: 442 x 732 km, 97.6° (Epoch: 16 June)

Event Time Altitude Azimuth Distance (km) Brightness Sun altitude
Rises 23:19:02 0° 13° (NNE) 2,969 ? -8.3°
Reaches altitude 10° 23:21:12 10° 12° (NNE) 2,095 ? -8.5°
Maximum altitude 23:25:48 74° 289° (WNW) 729 ? -8.7°
Drops below altitude 10° 23:30:40 10° 204° (SSW) 2,207 ? -9.0°
Enters shadow 23:32:44 - 203° (SSW) 3,034 ? -9.1°
